Time,TemperatureF,DewpointF,PressureIn,WindDirection,WindDirectionDegrees,WindSpeedMPH,WindSpeedGustMPH,Humidity,HourlyPrecipIn,Conditions,Clouds,dailyrainin,SoftwareType,DateUTC
2013-01-28 01:33:00,38.0,-99.9,-100.00,WSW,252,3.0,7.0,-999,-99.99,,,-99.99,,2013-01-28 09:33:00,
2013-01-28 01:42:00,38.0,-99.9,-100.00,WSW,252,3.0,7.0,-999,-99.99,,,-99.99,,2013-01-28 09:42:00,
2013-01-28 01:52:00,38.0,-99.9,-100.00,WSW,252,3.0,7.0,-999,-99.99,,,-99.99,,2013-01-28 09:52:00,
2013-01-28 03:33:00,36.0,-99.9,-100.00,WSW,239,3.0,9.0,-999,-99.99,,,-99.99,,2013-01-28 11:33:00,
2013-01-28 03:42:00,36.0,-99.9,-100.00,WSW,239,3.0,9.0,-999,-99.99,,,-99.99,,2013-01-28 11:42:00,
2013-01-28 03:53:00,36.0,-99.9,-100.00,WSW,239,3.0,9.0,-999,-99.99,,,-99.99,,2013-01-28 11:53:00,
2013-01-28 05:34:00,36.0,-99.9,-100.00,SW,232,6.0,8.0,-999,-99.99,,,-99.99,,2013-01-28 13:34:00,
2013-01-28 05:43:00,36.0,-99.9,-100.00,SW,232,6.0,8.0,-999,-99.99,,,-99.99,,2013-01-28 13:43:00,
2013-01-28 05:53:00,36.0,-99.9,-100.00,SW,232,6.0,8.0,-999,-99.99,,,-99.99,,2013-01-28 13:53:00,
2013-01-28 07:34:00,36.0,-99.9,-100.00,SSW,210,7.0,9.0,-999,-99.99,,,-99.99,,2013-01-28 15:34:00,
2013-01-28 07:44:00,36.0,-99.9,-100.00,SSW,210,7.0,9.0,-999,-99.99,,,-99.99,,2013-01-28 15:44:00,
2013-01-28 07:54:00,36.0,-99.9,-100.00,SSW,210,7.0,9.0,-999,-99.99,,,-99.99,,2013-01-28 15:54:00,
2013-01-28 09:33:00,36.0,-99.9,-100.00,SW,219,6.0,8.0,-999,-99.99,,,-99.99,,2013-01-28 17:33:00,
2013-01-28 09:42:00,36.0,-99.9,-100.00,SW,219,6.0,8.0,-999,-99.99,,,-99.99,,2013-01-28 17:42:00,
2013-01-28 09:53:00,36.0,-99.9,-100.00,SW,219,6.0,8.0,-999,-99.99,,,-99.99,,2013-01-28 17:53:00,
2013-01-28 11:33:00,37.0,-99.9,-100.00,WSW,238,7.0,10.0,-999,-99.99,,,-99.99,,2013-01-28 19:33:00,
2013-01-28 11:43:00,37.0,-99.9,-100.00,WSW,238,7.0,10.0,-999,-99.99,,,-99.99,,2013-01-28 19:43:00,
2013-01-28 11:53:00,37.0,-99.9,-100.00,WSW,238,7.0,10.0,-999,-99.99,,,-99.99,,2013-01-28 19:53:00,
2013-01-28 13:34:00,40.0,-99.9,-100.00,WSW,239,8.0,9.0,-999,-99.99,,,-99.99,,2013-01-28 21:34:00,
2013-01-28 13:43:00,40.0,-99.9,-100.00,WSW,239,8.0,9.0,-999,-99.99,,,-99.99,,2013-01-28 21:43:00,
2013-01-28 13:53:00,40.0,-99.9,-100.00,WSW,239,8.0,9.0,-999,-99.99,,,-99.99,,2013-01-28 21:53:00,
2013-01-28 15:33:00,40.0,-99.9,-100.00,SSW,205,6.0,9.0,-999,-99.99,,,-99.99,,2013-01-28 23:33:00,
2013-01-28 15:42:00,40.0,-99.9,-100.00,SSW,205,6.0,9.0,-999,-99.99,,,-99.99,,2013-01-28 23:42:00,
2013-01-28 15:53:00,40.0,-99.9,-100.00,SSW,205,6.0,9.0,-999,-99.99,,,-99.99,,2013-01-28 23:53:00,
2013-01-28 17:32:00,39.0,-99.9,-100.00,SW,228,2.0,8.0,-999,-99.99,,,-99.99,,2013-01-29 01:32:00,
2013-01-28 17:42:00,39.0,-99.9,-100.00,SW,228,2.0,8.0,-999,-99.99,,,-99.99,,2013-01-29 01:42:00,
2013-01-28 17:53:00,39.0,-99.9,-100.00,SW,228,2.0,8.0,-999,-99.99,,,-99.99,,2013-01-29 01:53:00,
2013-01-28 19:32:00,37.0,-99.9,-100.00,WSW,241,1.0,5.0,-999,-99.99,,,-99.99,,2013-01-29 03:32:00,
2013-01-28 19:42:00,37.0,-99.9,-100.00,WSW,241,1.0,5.0,-999,-99.99,,,-99.99,,2013-01-29 03:42:00,
2013-01-28 19:53:00,37.0,-99.9,-100.00,WSW,241,1.0,5.0,-999,-99.99,,,-99.99,,2013-01-29 03:53:00,
2013-01-28 21:32:00,37.0,-99.9,-100.00,SSW,195,4.0,5.0,-999,-99.99,,,-99.99,,2013-01-29 05:32:00,
2013-01-28 21:43:00,37.0,-99.9,-100.00,SSW,195,4.0,5.0,-999,-99.99,,,-99.99,,2013-01-29 05:43:00,
2013-01-28 21:52:00,37.0,-99.9,-100.00,SSW,195,4.0,5.0,-999,-99.99,,,-99.99,,2013-01-29 05:52:00,
2013-01-28 23:32:00,37.0,-99.9,-100.00,SSW,202,5.0,8.0,-999,-99.99,,,-99.99,,2013-01-29 07:32:00,
2013-01-28 23:42:00,37.0,-99.9,-100.00,SSW,202,5.0,8.0,-999,-99.99,,,-99.99,,2013-01-29 07:42:00,
2013-01-28 23:52:00,37.0,-99.9,-100.00,SSW,202,5.0,8.0,-999,-99.99,,,-99.99,,2013-01-29 07:52:00,